700  
ASUS41 KALY 042110  
RWRALY  
 
NEW YORK STATE HOURLY WEATHER ROUNDUP  
NATIONAL WEATHER SERVICE ALBANY NY  
400 PM EST SUN DEC 04 2022  
 
NOTE: "FAIR" INDICATES FEW OR NO CLOUDS BELOW 12,000 FEET WITH NO  
SIGNIFICANT WEATHER AND/OR NO S TO VISIBILITY
.  
 
NYZ032-033-038>043-046>054-057>066-NYZ062>081-082-084-042200-  
EAST  
 
 
CITY SKY/WX TMP DP RH WIND PRES REMARKS
 
ALBANY MOCLDY 37 21 52 CALM 30.14F  
GLENS FALLS PTCLDY 36 22 56 SW8 30.11S WCI 30  
POUGHKEEPSIE CLOUDY 40 21 46 CALM 30.16R  
NEWBURGH CLEAR 39 21 48 W7 30.15R WCI 34  
MONTGOMERY CLOUDY 38 18 44 W5 30.15R WCI 34  
WHITE PLAINS CLOUDY 40 22 48 NW5 30.17R  
ISLIP MOCLDY 42 20 41 NW3 30.18R  
NEW YORK CITY MOCLDY 45 20 36 NW10 30.17R  
CENTRAL PARK MOCLDY 44 20 38 NW3 30.20R  

 
 
NYZ005>009-017-018-044>046-055-056-042200-  
CENTRAL  
 
 
CITY SKY/WX TMP DP RH WIND PRES REMARKS
 
FULTON CLEAR 35 23 61 S6 30.09 WCI 30  
SYRACUSE PTCLDY 37 22 54 S9 30.11F WCI 30  
ROME CLEAR 34 19 54 SW6 30.13S WCI 29  
ELMIRA CLEAR 39 18 42 SW9 30.09F WCI 33  
BINGHAMTON CLEAR 32 18 56 S5 30.07F WCI 27  
MONTICELLO MOCLDY 34 19 54 W3 30.13R  

 
 
NYZ026>034-041>043-087-042200-  
NORTH  
 
 
CITY SKY/WX TMP DP RH WIND PRES REMARKS
 
WATERTOWN CLOUDY 36 25 64 SW15G22 30.07F WCI 27  
FORT DRUM NOT AVBL  
OGDENSBURG FAIR 36 25 64 SW15G26 30.01F WCI 26  
MASSENA MOCLDY 34 20 56 S10 30.05F WCI 26  
SARANAC LAKE CLOUDY 29 18 63 SW8 29.99S WCI 21  
PLATTSBURGH MOCLDY 32 17 54 S8 30.08S WCI 25  

 
 
NYZ001>004-010>016-019>021-085-042200-  
WEST  
 
 
CITY SKY/WX TMP DP RH WIND PRES REMARKS
 
NIAGARA FALLS MOCLDY 37 26 64 SW24G33 30.06S WCI 26  
BUFFALO MOCLDY 36 24 62 SW20G36 30.07F WCI 25  
DUNKIRK CLEAR 38 19 46 SW10 30.10F WCI 31  
JAMESTOWN CLEAR 32 16 51 SW14G20 30.06F WCI 22  
WELLSVILLE CLEAR 34 15 46 SW10 30.06F WCI 26  
ROCHESTER MOCLDY 36 22 56 SW15G24 30.08F WCI 27  
PENN YAN CLEAR 38 20 48 SW5 30.08S WCI 34  

 
 
KEY  
WCI = WIND CHILL INDEX  
VSB = VISIBILITY  
HX = HEAT INDEX  

 
 
 
CLICK HERE TO GO TO PREVIOUS BULLETINS.

The Nexlab NY Page
The Nexlab VT Page
The Nexlab MA Page
The Nexlab CT Page Main Text Page